Total_Precipitation_Accumulation
0.00 0.00 0.00 0.00 0.00 0.00 0.01 0.02 0.02 0.10 0.19 0.16 0.15 0.13 0.11 0.10 0.07 0.06 0.08 0.08 0.03 0.01 0.01 0.01 0.00 0.00 0.00 0.00 0.00 0.00 0.00 0.00
0.00 0.00 0.00 0.00 0.00 0.00 0.02 0.03 0.05 0.06 0.09 0.12 0.11 0.14 0.13 0.07 0.12 0.18 0.11 0.07 0.05 0.04 0.03 0.02 0.01 0.00 0.00 0.00 0.00 0.00 0.00 0.00
0.00 0.00 0.00 0.00 0.00 0.00 0.01 0.05 0.09 0.08 0.08 0.10 0.16 0.29 0.25 0.16 0.19 0.24 0.22 0.12 0.06 0.02 0.02 0.03 0.03 0.02 0.02 0.01 0.00 0.00 0.00 0.00
0.00 0.00 0.00 0.00 0.00 0.00 0.01 0.02 0.09 0.13 0.23 0.26 0.27 0.35 0.19 0.09 0.09 0.11 0.25 0.32 0.27 0.12 0.03 0.01 0.02 0.02 0.01 0.00 0.00 0.00 0.00 0.00
0.00 0.00 0.00 0.00 0.00 0.01 0.03 0.05 0.14 0.38 0.40 0.32 0.27 0.26 0.18 0.16 0.19 0.21 0.29 0.32 0.31 0.25 0.10 0.06 0.04 0.03 0.01 0.00 0.00 0.00 0.00 0.00
0.00 0.00 0.00 0.02 0.07 0.13 0.21 0.29 0.32 0.44 0.48 0.40 0.44 0.41 0.32 0.28 0.25 0.27 0.26 0.19 0.17 0.19 0.14 0.10 0.09 0.07 0.05 0.03 0.01 0.00 0.00 0.00
0.00 0.00 0.00 0.11 0.23 0.27 0.37 0.38 0.37 0.44 0.44 0.44 0.47 0.51 0.60 0.52 0.46 0.48 0.54 0.53 0.50 0.38 0.25 0.16 0.15 0.14 0.09 0.07 0.05 0.02 0.01 0.00
0.00 0.00 0.01 0.12 0.24 0.35 0.50 0.53 0.44 0.43 0.47 0.51 0.53 0.55 0.57 0.61 0.65 0.63 0.66 0.67 0.65 0.64 0.73 0.77 0.70 0.58 0.57 0.58 0.51 0.33 0.16 0.07
0.00 0.00 0.01 0.01 0.05 0.24 0.50 0.71 0.76 0.57 0.56 0.68 0.77 0.87 1.09 1.13 1.11 1.08 1.03 1.02 1.04 1.01 1.10 1.20 1.22 1.24 1.26 1.26 1.16 0.94 0.70 0.44
0.03 0.03 0.04 0.07 0.09 0.11 0.26 0.56 0.77 1.01 0.99 0.96 0.96 0.94 0.99 1.01 1.07 1.33 1.56 1.64 1.53 1.42 1.37 1.26 1.16 1.05 1.06 1.19 1.14 1.00 0.91 0.78
0.01 0.01 0.02 0.01 0.01 0.03 0.07 0.20 0.55 1.03 1.35 1.23 1.05 1.09 1.16 0.98 0.94 0.95 0.90 1.00 1.20 1.16 1.09 1.13 1.12 1.09 1.07 1.04 1.01 0.97 0.94 0.87
0.01 0.02 0.07 0.10 0.08 0.08 0.07 0.07 0.07 0.11 0.24 0.43 0.78 0.89 0.76 0.66 0.52 0.62 0.76 0.70 0.64 0.69 0.68 0.67 0.72 0.77 0.80 0.82 0.79 0.79 0.71 0.63
0.00 0.00 0.00 0.02 0.04 0.07 0.09 0.11 0.14 0.13 0.11 0.15 0.17 0.19 0.28 0.35 0.33 0.33 0.46 0.59 0.62 0.66 0.62 0.56 0.54 0.62 0.70 0.73 0.70 0.65 0.62 0.61
0.00 0.00 0.00 0.00 0.00 0.00 0.01 0.01 0.01 0.01 0.02 0.03 0.06 0.07 0.08 0.10 0.13 0.15 0.18 0.29 0.44 0.58 0.65 0.65 0.64 0.66 0.67 0.69 0.69 0.63 0.54 0.51
0.00 0.00 0.00 0.00 0.00 0.00 0.00 0.00 0.00 0.00 0.00 0.00 0.00 0.00 0.01 0.03 0.04 0.06 0.10 0.16 0.23 0.34 0.49 0.62 0.56 0.55 0.58 0.57 0.56 0.53 0.47 0.46
0.00 0.00 0.00 0.00 0.00 0.00 0.00 0.00 0.00 0.00 0.00 0.00 0.01 0.01 0.01 0.03 0.05 0.07 0.08 0.09 0.11 0.15 0.23 0.34 0.44 0.42 0.47 0.46 0.43 0.41 0.37 0.40
0.00 0.00 0.00 0.00 0.00 0.00 0.00 0.00 0.00 0.00 0.00 0.00 0.02 0.02 0.01 0.01 0.01 0.03 0.06 0.05 0.04 0.03 0.06 0.10 0.17 0.26 0.39 0.35 0.28 0.24 0.23 0.26
0.00 0.00 0.00 0.00 0.00 0.00 0.00 0.00 0.00 0.00 0.00 0.00 0.00 0.00 0.00 0.00 0.03 0.06 0.07 0.06 0.05 0.06 0.08 0.08 0.09 0.12 0.23 0.28 0.30 0.25 0.27 0.26
0.00 0.00 0.00 0.00 0.00 0.00 0.00 0.00 0.00 0.00 0.00 0.00 0.00 0.00 0.01 0.03 0.09 0.13 0.15 0.16 0.19 0.22 0.26 0.29 0.34 0.33 0.46 0.40 0.30 0.22 0.22 0.20